This is the latest recevied weather packets stored in our database for station/object KF7ROW. If no packets are shown the sender has not sent any weather packets the latest 1 day(s).
| Time | Temp. | Humidity | Pressure | Rain* | Wind** | Luminosity | Snow |
|---|---|---|---|---|---|---|---|
| 1778114094 | 12.78° C | 90% | 1026.8 hPa | 0 mm | - | 77 W/m² | - |
| 1778113784 | 12.78° C | 89% | 1026.8 hPa | 0 mm | - | 75 W/m² | - |
| 1778113178 | 12.78° C | 89% | 1026.6 hPa | 0 mm | - | 88 W/m² | - |
| 1778112874 | 12.78° C | 89% | 1026.8 hPa | 0 mm | - | 100 W/m² | - |
| 1778110752 | 12.78° C | 90% | 1026.9 hPa | 0 mm | - | 93 W/m² | - |
| 1778108932 | 12.78° C | 89% | 1027 hPa | 0 mm | - | 194 W/m² | - |
| 1778105899 | 13.33° C | 85% | 1027.1 hPa | 0 mm | - | 235 W/m² | - |
| 1778105596 | 13.33° C | 85% | 1027.3 hPa | 0 mm | - | 230 W/m² | - |
| 1778104077 | 13.33° C | 85% | 1027.1 hPa | 0 mm | - | 199 W/m² | - |
| 1778103169 | 13.33° C | 84% | 1026.8 hPa | 0 mm | - | 205 W/m² | - |
| 1778101954 | 13.33° C | 83% | 1026.9 hPa | 0 mm | - | 180 W/m² | - |
| 1778101348 | 13.89° C | 82% | 1026.8 hPa | 0 mm | - | 197 W/m² | - |
| 1778100438 | 13.89° C | 80% | 1026.8 hPa | 0 mm | - | 260 W/m² | - |
| 1778100135 | 13.89° C | 80% | 1026.9 hPa | 0 mm | - | 264 W/m² | - |
| 1778099833 | 13.89° C | 80% | 1026.8 hPa | 0 mm | - | 265 W/m² | - |
| 1778099530 | 13.89° C | 81% | 1026.8 hPa | 0 mm | - | 268 W/m² | - |
| 1778099228 | 13.89° C | 82% | 1026.6 hPa | 0 mm | - | 294 W/m² | - |
| 1778098621 | 13.33° C | 83% | 1026.8 hPa | 0 mm | - | 222 W/m² | - |
| 1778098014 | 13.33° C | 84% | 1026.9 hPa | 0 mm | - | 218 W/m² | - |
| 1778096497 | 13.33° C | 84% | 1026.9 hPa | 0 mm | - | 197 W/m² | - |
| 1778092860 | 13.33° C | 87% | 1026.5 hPa | 0 mm | - | 233 W/m² | - |
| 1778092556 | 12.78° C | 87% | 1026.6 hPa | 0 mm | - | 210 W/m² | - |
| 1778091345 | 12.78° C | 88% | 1026.5 hPa | 0 mm | - | 173 W/m² | - |
| 1778090738 | 12.78° C | 87% | 1026.7 hPa | 0 mm | - | 134 W/m² | - |
| 1778090435 | 13.33° C | 87% | 1026.4 hPa | 0 mm | - | 130 W/m² | - |
* Rain latest hour (hover to see other rain measurements)
** Current wind speed in m/s (hover to see current wind gust speed)